[[[{"header":{"parameterUnit":"kt","parameterCategory":2,"dx":1,"dy":1,"la1":30.253999710083008,"la2":30.299108505249023,"lo1":-89.0895004272461,"lo2":-89.04439544677734,"nx":28,"ny":28,"refTime":"2022-09-26T21:00:00:Z","depth":"0","parameterNumber":2,"parameterNumberName":"U-component_of_CURRENTS"},"data":[-0.1133,-0.1058,-0.104,-0.0952,-0.0924,-0.0834,-0.0792,-0.0737,-0.0721,-0.0753,-0.0876,-0.0994,-0.1259,-0.1374,-0.1216,-0.0986,-0.1069,-0.0979,-0.1069,-0.1037,-0.1044,-0.1051,-0.1084,-0.1002,-0.1003,-0.1155,-0.1158,-0.1161,-0.1178,-0.1146,-0.1112,-0.1051,-0.101,-0.1017,-0.0964,-0.0927,-0.0841,-0.0843,-0.0809,-0.0889,-0.0757,-0.0669,-0.0589,-0.0545,-0.0471,-0.0576,-0.0765,-0.0734,-0.0487,-0.0484,-0.0272,-0.0272,-0.0272,-0.0272,-0.0272,-0.0272,-0.1246,-0.1221,-0.1174,-0.1143,-0.1119,-0.1077,-0.1051,-0.1027,-0.0978,-0.0921,-0.0927,-0.0904,-0.0807,-0.0611,-0.047,-0.0385,-0.0523,-0.0453,-0.0666,-0.0741,-0.0715,-0.0448,-0.0204,-0.0205,-0.0206,-0.0207,-0.0208,0,-0.1271,-0.1266,-0.1249,-0.1206,-0.12,-0.1196,-0.1196,-0.1162,-0.1182,-0.1149,-0.1078,-0.1028,-0.0879,-0.077,-0.0635,-0.0569,-0.0774,-0.0605,-0.0767,-0.0933,-0.1028,-0.0992,-0.082,-0.062,-0.0624,-0.0627,-0.0628,-0.063,-0.1301,-0.1289,-0.129,-0.1274,-0.1286,-0.1301,-0.1301,-0.1343,-0.1338,-0.1295,-0.1253,-0.1169,-0.1119,-0.0959,-0.0888,-0.0799,-0.0956,-0.0692,-0.0771,-0.0914,-0.1103,-0.1199,-0.1181,-0.0667,-0.0663,-0.0659,-0.0656,0,-0.1306,-0.1323,-0.1321,-0.1346,-0.1352,-0.1361,-0.1383,-0.1391,-0.142,-0.1387,-0.1375,-0.1391,-0.1294,-0.1279,-0.12,-0.1186,-0.1119,-0.1042,-0.0996,-0.096,-0.0964,-0.1151,-0.1108,-0.1071,-0.0878,-0.0874,-0.0871,0,-0.1349,-0.1347,-0.1389,-0.1375,-0.1379,-0.1429,-0.1443,-0.1486,-0.1509,-0.1487,-0.1556,-0.151,-0.1525,-0.1448,-0.1436,-0.1295,-0.1327,-0.1259,-0.1229,-0.1191,-0.1179,-0.1273,-0.1457,-0.136,-0.136,-0.1361,-0.1362,0,-0.1376,-0.1404,-0.141,-0.1416,-0.1449,-0.147,-0.1499,-0.1558,-0.1566,-0.1611,-0.1589,-0.1608,-0.1571,-0.1537,-0.1487,-0.1534,-0.1373,-0.143,-0.1293,-0.1285,-0.1202,-0.1188,-0.1194,-0.1363,-0.1363,-0.1364,-0.1364,0,-0.1421,-0.1427,-0.1439,-0.1459,-0.1468,-0.1488,-0.1538,-0.1568,-0.1617,-0.1639,-0.1665,-0.1674,-0.166,-0.1672,-0.1604,-0.1637,-0.1604,-0.1572,-0.1567,-0.145,-0.145,-0.1288,-0.1174,-0.1308,-0.1516,-0.1518,-0.1519,0,-0.1421,-0.144,-0.1471,-0.1485,-0.1493,-0.1543,-0.1566,-0.1613,-0.1655,-0.1676,-0.1696,-0.1704,-0.1745,-0.1741,-0.1721,-0.169,-0.1653,-0.1715,-0.1601,-0.1598,-0.1484,-0.1396,-0.1326,-0.1208,-0.1538,-0.1536,-0.1535,0,-0.1426,-0.1468,-0.1467,-0.1472,-0.1524,-0.1551,-0.159,-0.1637,-0.1651,-0.1691,-0.1696,-0.1739,-0.1752,-0.1766,-0.1791,-0.1755,-0.1685,-0.1748,-0.1746,-0.1698,-0.1563,-0.1439,-0.1414,-0.1665,-0.1663,-0.1662,-0.1549,0,-0.1458,-0.1457,-0.1471,-0.1498,-0.1532,-0.1558,-0.1606,-0.1639,-0.1659,-0.1685,-0.1716,-0.1753,-0.1781,-0.1786,-0.181,-0.1788,-0.1778,-0.1779,-0.178,-0.1755,-0.1711,-0.17,-0.1844,-0.1844,-0.1845,-0.1845,0,0,-0.1445,-0.145,-0.1483,-0.1503,-0.1531,-0.1577,-0.1594,-0.1622,-0.1687,-0.1708,-0.1709,-0.1763,-0.1795,-0.1816,-0.1819,-0.1839,-0.1806,-0.1842,-0.1779,-0.1772,-0.1765,-0.1721,-0.171,-0.1846,-0.1846,-0.1846,-0.1846,0,-0.1457,-0.1456,-0.1465,-0.1495,-0.1556,-0.1584,-0.1591,-0.1645,-0.166,-0.1703,-0.1723,-0.1748,-0.1802,-0.1822,-0.1833,-0.1844,-0.1823,-0.1847,-0.1836,-0.1783,-0.1776,-0.1769,-0.1725,-0.1714,-0.1847,-0.1847,-0.1847,0,-0.1455,-0.1481,-0.1481,-0.152,-0.1555,-0.1581,-0.1598,-0.1639,-0.1656,-0.1693,-0.1729,-0.1756,-0.1786,-0.182,-0.1837,-0.1841,-0.1832,-0.1866,-0.1865,-0.1864,-0.181,-0.1802,-0.1795,-0.1885,-0.1885,-0.1885,0,0,-0.1464,-0.1468,-0.1516,-0.1525,-0.1546,-0.1588,-0.1615,-0.1632,-0.1672,-0.1681,-0.172,-0.1751,-0.1777,-0.18,-0.1834,-0.1873,-0.185,-0.187,-0.1868,-0.1867,-0.1865,-0.1812,-0.1804,-0.1885,-0.1885,-0.1885,0,0,-0.1474,-0.151,-0.1515,-0.1518,-0.1566,-0.1621,-0.1644,-0.1653,-0.1681,-0.1679,-0.1716,-0.1729,-0.1767,-0.1791,-0.1789,-0.1825,-0.1832,-0.1835,-0.1812,-0.181,-0.1808,-0.1797,-0.1799,0,0,0,0,0,-0.1512,-0.1508,-0.1512,-0.152,-0.1561,-0.1617,-0.1626,-0.1656,-0.1646,-0.1651,-0.1686,-0.1696,-0.1791,-0.1792,-0.1805,-0.18,-0.1887,-0.1887,-0.1887,-0.1866,-0.1864,-0.1862,0,0,0,0,0,0,-0.1516,-0.1521,-0.1514,-0.1563,-0.1576,-0.1615,-0.1614,-0.1621,-0.1646,-0.1645,-0.1689,-0.1698,-0.1726,-0.1786,-0.1798,-0.1792,-0.1795,-0.1887,-0.1887,-0.1886,-0.1865,-0.1863,-0.1862,0,0,0,0,0,-0.152,-0.1524,-0.1569,-0.1565,-0.1575,-0.1628,-0.1612,-0.1618,-0.1619,-0.1689,-0.1695,-0.1643,-0.1726,-0.1738,-0.1794,-0.1785,-0.1787,-0.1792,-0.1887,-0.1887,-0.1886,-0.1864,0,0,0,0,0,0,-0.1522,-0.1519,-0.1573,-0.1581,-0.1559,-0.1626,-0.163,-0.1615,-0.1661,-0.167,-0.1647,-0.1646,-0.1726,-0.1735,-0.1745,-0.1781,-0.1781,-0.1785,-0.1788,-0.1887,-0.1887,-0.1886,0,0,0,0,0,0,-0.1519,-0.1523,-0.1576,-0.1566,-0.1572,-0.1624,-0.1628,-0.1675,-0.1661,-0.1613,-0.1616,-0.1646,-0.1727,-0.1733,-0.1741,-0.1814,-0.1776,-0.178,-0.1783,-0.1785,-0.1887,-0.1886,0,0,0,0,0,0,-0.1523,-0.1527,-0.1563,-0.1568,-0.1573,-0.1648,-0.1668,-0.1708,-0.1651,-0.1609,-0.1649,-0.1649,-0.1726,-0.1733,-0.1738,-0.1808,-0.1813,-0.1776,-0.1779,-0.1781,-0.1782,0,0,0,0,0,0,0,-0.1526,-0.1475,-0.1545,-0.1569,-0.1573,-0.1653,-0.1653,-0.1654,-0.1651,-0.165,-0.1649,-0.1649,-0.1751,-0.1756,-0.1761,-0.1803,0,0,-0.1775,-0.1777,0,0,0,0,0,0,0,0,-0.1476,-0.1476,-0.1545,-0.1547,-0.155,-0.1653,-0.1653,-0.1654,-0.1651,-0.165,-0.165,-0.1649,-0.1753,-0.1756,-0.176,0,0,0,0,0,0,0,0,0,0,0,0,0,0,0,-0.1545,-0.1547,0,-0.1653,-0.1653,-0.1654,-0.1651,-0.165,-0.165,-0.1649,-0.1754,-0.1757,-0.176,0,0,0,0,0,0,0,0,0,0,0,0,0,0,0,0,0,0,0,0,0,0,0,0,0,0,0,0,0,0,0,0,0,0,0,0,0,0,0,0,0,0,0,0,0,0,0,0,0,0,0,0,0,0,0,0,0,0,0,0,0,0,0,0,0,0,0,0,0]}],[{"header":{"parameterUnit":"kt","parameterCategory":2,"dx":1,"dy":1,"la1":30.253999710083008,"la2":30.299108505249023,"lo1":-89.0895004272461,"lo2":-89.04439544677734,"nx":28,"ny":28,"refTime":"2022-09-26T21:00:00:Z","depth":"0","parameterNumber":3,"parameterNumberName":"V-component_of_CURRENTS"},"data":[-0.1915,-0.1887,-0.1915,-0.1915,-0.194,-0.1886,-0.1799,-0.1663,-0.1563,-0.1409,-0.1329,-0.1299,-0.0977,-0.0178,0.002,-0.0049,-0.0133,-0.0035,-0.018,-0.0488,-0.0528,-0.0566,-0.0557,-0.0179,-0.0178,0.0022,0.0026,0.0028,-0.1989,-0.2008,-0.2007,-0.2023,-0.2038,-0.2069,-0.1962,-0.1861,-0.1702,-0.1607,-0.1457,-0.1179,-0.0864,-0.0683,-0.0394,-0.0406,-0.0513,-0.0494,-0.0452,-0.0545,-0.0862,-0.0855,-0.0536,-0.0536,-0.0536,-0.0536,-0.0536,-0.0536,-0.2134,-0.2131,-0.2144,-0.2119,-0.2144,-0.2127,-0.2041,-0.1989,-0.1882,-0.1689,-0.1615,-0.1446,-0.1151,-0.0925,-0.0879,-0.0797,-0.0851,-0.0929,-0.082,-0.0753,-0.0773,-0.1099,-0.0807,-0.0809,-0.081,-0.0811,-0.0812,0,-0.2219,-0.2254,-0.225,-0.225,-0.2239,-0.223,-0.2184,-0.2116,-0.2066,-0.1959,-0.1785,-0.1667,-0.1415,-0.1256,-0.1119,-0.112,-0.1225,-0.1239,-0.129,-0.1145,-0.1037,-0.1088,-0.1532,-0.1271,-0.1275,-0.1278,-0.128,-0.1282,-0.2324,-0.2309,-0.236,-0.2353,-0.235,-0.2322,-0.2302,-0.2298,-0.2253,-0.2096,-0.202,-0.1846,-0.172,-0.1529,-0.1484,-0.141,-0.1459,-0.1337,-0.1482,-0.1513,-0.1411,-0.1345,-0.1403,-0.1327,-0.1321,-0.1316,-0.1313,0,-0.2369,-0.2404,-0.2397,-0.2423,-0.2421,-0.2401,-0.2375,-0.2347,-0.2314,-0.2209,-0.2177,-0.2115,-0.1967,-0.1935,-0.1868,-0.189,-0.1723,-0.1767,-0.1684,-0.1654,-0.1598,-0.1519,-0.1135,-0.1166,-0.161,-0.1606,-0.1602,0,-0.2468,-0.2447,-0.2494,-0.2485,-0.245,-0.2486,-0.2444,-0.2458,-0.2424,-0.2352,-0.2373,-0.2272,-0.2285,-0.2179,-0.2207,-0.2058,-0.2081,-0.2071,-0.2048,-0.1993,-0.1979,-0.1944,-0.1861,-0.2182,-0.2183,-0.2185,-0.2186,0,-0.2552,-0.2542,-0.2529,-0.2529,-0.2546,-0.254,-0.2545,-0.256,-0.2548,-0.2516,-0.2456,-0.2418,-0.234,-0.2328,-0.2287,-0.2369,-0.2163,-0.227,-0.2131,-0.2123,-0.1975,-0.1956,-0.1851,-0.2187,-0.2188,-0.2188,-0.2189,0,-0.261,-0.2612,-0.2602,-0.2586,-0.2582,-0.2592,-0.2588,-0.261,-0.2599,-0.2601,-0.2558,-0.2543,-0.2484,-0.2537,-0.2439,-0.2495,-0.2479,-0.2465,-0.2458,-0.2294,-0.2323,-0.212,-0.1982,-0.2009,-0.2406,-0.2408,-0.241,0,-0.2635,-0.2639,-0.2661,-0.2651,-0.2635,-0.266,-0.2682,-0.2699,-0.2715,-0.2689,-0.2673,-0.264,-0.2687,-0.2656,-0.2639,-0.2599,-0.2564,-0.265,-0.249,-0.2483,-0.2393,-0.2292,-0.2195,-0.2028,-0.2437,-0.2434,-0.2432,0,-0.2654,-0.2679,-0.2671,-0.2658,-0.268,-0.2702,-0.273,-0.2735,-0.2725,-0.2742,-0.2707,-0.2729,-0.2691,-0.2683,-0.2685,-0.2661,-0.2608,-0.2673,-0.2669,-0.2629,-0.2474,-0.2347,-0.2317,-0.2623,-0.262,-0.2618,-0.2453,0,-0.2641,-0.2648,-0.2663,-0.2687,-0.2712,-0.2709,-0.2755,-0.2755,-0.2772,-0.2777,-0.2755,-0.2745,-0.2709,-0.2739,-0.2756,-0.2709,-0.2695,-0.2706,-0.2709,-0.2676,-0.2607,-0.2591,-0.2772,-0.2771,-0.277,-0.2769,0,0,-0.2602,-0.2637,-0.2685,-0.2695,-0.2711,-0.274,-0.2739,-0.2755,-0.2772,-0.2761,-0.2781,-0.2745,-0.2765,-0.2738,-0.2735,-0.2747,-0.2706,-0.2769,-0.2694,-0.2687,-0.2679,-0.2613,-0.2598,-0.2768,-0.2768,-0.2767,-0.2767,0,-0.2598,-0.2639,-0.2668,-0.2687,-0.2728,-0.2738,-0.2752,-0.2769,-0.2763,-0.2779,-0.2755,-0.2738,-0.2776,-0.2747,-0.275,-0.274,-0.2734,-0.2759,-0.2747,-0.2691,-0.2685,-0.2678,-0.2613,-0.26,-0.2765,-0.2765,-0.2765,0,-0.2564,-0.2615,-0.2652,-0.2715,-0.2734,-0.2747,-0.2756,-0.2772,-0.2786,-0.2771,-0.2766,-0.2756,-0.2751,-0.2751,-0.2756,-0.2757,-0.2736,-0.2782,-0.2783,-0.2748,-0.2689,-0.2681,-0.2674,-0.2764,-0.2765,-0.2765,0,0,-0.2546,-0.2595,-0.2664,-0.2724,-0.2734,-0.276,-0.2774,-0.2766,-0.277,-0.2751,-0.276,-0.2747,-0.2751,-0.2761,-0.2751,-0.2773,-0.2722,-0.2786,-0.2786,-0.2787,-0.2754,-0.2694,-0.2686,-0.2767,-0.2767,-0.2767,0,0,-0.2543,-0.2635,-0.2655,-0.2717,-0.2757,-0.2786,-0.2786,-0.2793,-0.2758,-0.2736,-0.2752,-0.2753,-0.2761,-0.2756,-0.2776,-0.2775,-0.2765,-0.2763,-0.281,-0.281,-0.281,-0.2772,-0.2794,0,0,0,0,0,-0.2605,-0.2637,-0.2656,-0.2679,-0.2748,-0.2793,-0.2792,-0.2783,-0.2774,-0.2755,-0.2734,-0.2761,-0.2739,-0.2757,-0.2767,-0.2799,-0.279,-0.2786,-0.2782,-0.2846,-0.2846,-0.2845,0,0,0,0,0,0,-0.2615,-0.2641,-0.2656,-0.2702,-0.272,-0.279,-0.2766,-0.2759,-0.2774,-0.2766,-0.2758,-0.276,-0.2754,-0.2756,-0.2764,-0.2794,-0.2791,-0.2789,-0.2785,-0.2782,-0.2846,-0.2846,-0.2845,0,0,0,0,0,-0.2623,-0.2645,-0.2768,-0.2697,-0.2712,-0.2729,-0.2762,-0.2757,-0.2733,-0.277,-0.2767,-0.2736,-0.2754,-0.2761,-0.2761,-0.279,-0.2786,-0.2789,-0.2786,-0.2784,-0.2781,-0.2846,0,0,0,0,0,0,-0.2629,-0.2582,-0.2768,-0.2772,-0.2696,-0.272,-0.2724,-0.2755,-0.2732,-0.2735,-0.275,-0.2745,-0.2754,-0.2759,-0.2765,-0.2788,-0.2782,-0.2785,-0.2787,-0.2784,-0.2782,-0.278,0,0,0,0,0,0,-0.2573,-0.2584,-0.2769,-0.2767,-0.2768,-0.2712,-0.2717,-0.275,-0.2733,-0.2707,-0.2706,-0.2749,-0.2787,-0.2759,-0.2763,-0.281,-0.2779,-0.2782,-0.2784,-0.2785,-0.2782,-0.2781,0,0,0,0,0,0,-0.2577,-0.2586,-0.2763,-0.2765,-0.2766,-0.278,-0.2739,-0.2816,-0.2714,-0.2706,-0.2712,-0.2711,-0.279,-0.2791,-0.2762,-0.2807,-0.2809,-0.2779,-0.2781,-0.2782,-0.2783,0,0,0,0,0,0,0,-0.258,-0.253,-0.2783,-0.2763,-0.2763,-0.2811,-0.2809,-0.2806,-0.2714,-0.2713,-0.2712,-0.2711,-0.2765,-0.2767,-0.277,-0.2804,0,0,-0.2779,-0.278,0,0,0,0,0,0,0,0,-0.2525,-0.2529,-0.2783,-0.2786,-0.2789,-0.2811,-0.2809,-0.2807,-0.2713,-0.2713,-0.2712,-0.2711,-0.2765,-0.2768,-0.277,0,0,0,0,0,0,0,0,0,0,0,0,0,0,0,-0.2784,-0.2786,0,-0.2811,-0.2809,-0.2807,-0.2713,-0.2713,-0.2712,-0.2712,-0.2766,-0.2768,-0.277,0,0,0,0,0,0,0,0,0,0,0,0,0,0,0,0,0,0,0,0,0,0,0,0,0,0,0,0,0,0,0,0,0,0,0,0,0,0,0,0,0,0,0,0,0,0,0,0,0,0,0,0,0,0,0,0,0,0,0,0,0,0,0,0,0,0,0,0,0]}]],[[{"header":{"parameterUnit":"kt","parameterCategory":2,"dx":1,"dy":1,"la1":30.253999710083008,"la2":30.299108505249023,"lo1":-89.0895004272461,"lo2":-89.04439544677734,"nx":28,"ny":28,"refTime":"2022-09-26T21:00:00:Z","depth":"2","parameterNumber":2,"parameterNumberName":"U-component_of_CURRENTS"},"data":[-0.1062,-0.1,-0.0986,-0.0902,-0.088,-0.0778,-0.074,-0.0655,-0.0632,-0.0517,-0.0532,-0.0704,-0.074,-0.0709,-0.065,-0.0534,-0.0517,-0.0483,-0.0454,-0.0589,-0.0596,-0.0575,-0.0672,0,0,0,0,0,-0.1099,-0.108,-0.1058,-0.1009,-0.0963,-0.0972,-0.0907,-0.0851,-0.0734,-0.0712,-0.0648,-0.0645,-0.0647,-0.0654,-0.0501,-0.0428,-0.0439,-0.0408,-0.0509,-0.0516,-0.0523,-0.0581,-0.0449,-0.0448,-0.0448,-0.0448,0,0,-0.1168,-0.115,-0.1125,-0.1104,-0.1078,-0.1029,-0.0999,-0.0951,-0.0872,-0.0766,-0.0762,-0.0689,-0.0759,-0.061,-0.055,-0.0451,-0.0446,-0.0474,-0.0481,-0.0488,-0.0539,-0.0565,-0.0399,-0.0399,-0.0398,-0.0398,-0.0398,0,-0.1178,-0.1185,-0.1178,-0.1159,-0.1149,-0.113,-0.1125,-0.1088,-0.107,-0.0999,-0.0898,-0.0833,-0.0697,-0.0625,-0.0553,-0.0508,-0.0566,-0.0549,-0.0581,-0.0719,-0.0749,-0.0718,-0.0732,-0.0611,-0.0612,-0.0612,-0.0613,-0.0613,-0.1193,-0.1195,-0.1207,-0.1193,-0.1209,-0.1222,-0.1225,-0.1241,-0.1205,-0.1125,-0.1067,-0.0969,-0.0893,-0.0697,-0.0655,-0.0565,-0.0668,-0.0576,-0.0632,-0.0701,-0.0665,-0.068,-0.0694,-0.0621,-0.062,-0.0619,-0.0619,0,-0.1188,-0.1212,-0.1216,-0.1241,-0.1243,-0.1252,-0.1241,-0.1239,-0.1254,-0.1183,-0.1179,-0.1137,-0.101,-0.0968,-0.0844,-0.0822,-0.0724,-0.0734,-0.0802,-0.0761,-0.0703,-0.0714,-0.0558,-0.0555,-0.0552,-0.055,-0.0548,0,-0.1207,-0.1207,-0.1241,-0.1239,-0.1248,-0.1254,-0.1257,-0.129,-0.1288,-0.123,-0.1267,-0.1226,-0.1165,-0.1083,-0.1066,-0.0932,-0.0925,-0.09,-0.0847,-0.09,-0.09,-0.1019,-0.1033,-0.0919,-0.092,-0.0922,-0.0923,0,-0.1196,-0.1226,-0.123,-0.1231,-0.1237,-0.1262,-0.1268,-0.1277,-0.126,-0.1275,-0.1251,-0.1243,-0.1197,-0.1165,-0.111,-0.1135,-0.0962,-0.0944,-0.0901,-0.0895,-0.0938,-0.0938,-0.0924,-0.0925,-0.0925,-0.0926,-0.0926,0,-0.1212,-0.1235,-0.1241,-0.1242,-0.1253,-0.1237,-0.1258,-0.1246,-0.1257,-0.1264,-0.1299,-0.13,-0.1261,-0.1313,-0.1194,-0.1244,-0.1226,-0.1161,-0.1151,-0.1156,-0.111,-0.0964,-0.0895,-0.1018,-0.102,-0.1021,-0.1022,0,-0.1204,-0.1237,-0.1234,-0.1227,-0.1246,-0.1272,-0.1262,-0.1256,-0.1255,-0.1268,-0.1269,-0.1266,-0.1329,-0.1358,-0.1329,-0.1245,-0.1222,-0.1295,-0.1178,-0.1175,-0.1095,-0.1034,-0.1076,-0.0921,-0.1042,-0.104,-0.1038,0,-0.1187,-0.1235,-0.1243,-0.1247,-0.1268,-0.1261,-0.1272,-0.1269,-0.1278,-0.1308,-0.1299,-0.1304,-0.1367,-0.137,-0.1392,-0.1345,-0.1245,-0.1367,-0.1366,-0.1248,-0.1109,-0.1065,-0.1047,-0.1233,-0.1232,-0.1231,-0.1053,0,-0.1226,-0.1218,-0.1251,-0.1251,-0.1247,-0.1286,-0.1264,-0.1318,-0.1329,-0.132,-0.1343,-0.1379,-0.1425,-0.1385,-0.1409,-0.1374,-0.1378,-0.1378,-0.1363,-0.1359,-0.1285,-0.1272,-0.1443,-0.1444,-0.1446,-0.1447,0,0,-0.1221,-0.1202,-0.1212,-0.1238,-0.1241,-0.1272,-0.1273,-0.1292,-0.1355,-0.1377,-0.1394,-0.1451,-0.1435,-0.1416,-0.1448,-0.144,-0.1424,-0.1439,-0.1388,-0.1381,-0.1375,-0.1302,-0.1289,-0.1449,-0.145,-0.145,-0.1451,0,-0.123,-0.1207,-0.1203,-0.1217,-0.1261,-0.1276,-0.1271,-0.1338,-0.137,-0.1385,-0.1436,-0.1459,-0.1458,-0.1471,-0.1455,-0.1463,-0.1405,-0.146,-0.1464,-0.14,-0.1391,-0.1383,-0.131,-0.1297,-0.1454,-0.1454,-0.1454,0,-0.1226,-0.122,-0.1189,-0.1176,-0.1232,-0.1238,-0.1275,-0.1334,-0.1319,-0.1383,-0.1437,-0.1469,-0.1476,-0.1486,-0.1484,-0.1489,-0.1408,-0.1447,-0.1443,-0.1485,-0.142,-0.1412,-0.1405,-0.1486,-0.1486,-0.1485,0,0,-0.1244,-0.1217,-0.1196,-0.1171,-0.1195,-0.1243,-0.1272,-0.1309,-0.1368,-0.1412,-0.1439,-0.148,-0.1472,-0.1471,-0.1497,-0.1482,-0.1468,-0.1443,-0.1441,-0.144,-0.1479,-0.1416,-0.1409,-0.1483,-0.1483,-0.1482,0,0,-0.1268,-0.1226,-0.1207,-0.1169,-0.1185,-0.1255,-0.1314,-0.1318,-0.1404,-0.1445,-0.1446,-0.1453,-0.1456,-0.1477,-0.1451,-0.1445,-0.1466,-0.147,-0.1388,-0.1386,-0.1385,-0.1425,-0.1415,0,0,0,0,0,-0.1238,-0.1213,-0.1193,-0.1183,-0.12,-0.1233,-0.1251,-0.133,-0.1358,-0.1389,-0.146,-0.1414,-0.1503,-0.1481,-0.1473,-0.1402,-0.1451,-0.1457,-0.1462,-0.1355,-0.1354,-0.1353,0,0,0,0,0,0,-0.1234,-0.1218,-0.1196,-0.124,-0.1245,-0.1235,-0.1295,-0.1321,-0.1358,-0.1372,-0.1415,-0.1415,-0.1439,-0.148,-0.1474,-0.1406,-0.1417,-0.1453,-0.1458,-0.1462,-0.1355,-0.1354,-0.1353,0,0,0,0,0,-0.1231,-0.1219,-0.12,-0.1247,-0.1251,-0.1336,-0.1298,-0.1319,-0.1377,-0.1385,-0.1395,-0.1427,-0.1439,-0.1434,-0.1476,-0.1409,-0.142,-0.1418,-0.1456,-0.146,-0.1463,-0.1354,0,0,0,0,0,0,-0.1229,-0.1296,-0.1207,-0.1215,-0.1249,-0.1343,-0.1352,-0.1317,-0.1391,-0.1399,-0.1394,-0.1402,-0.1438,-0.1435,-0.1431,-0.1411,-0.1423,-0.1421,-0.142,-0.1459,-0.1462,-0.1465,0,0,0,0,0,0,-0.1302,-0.1301,-0.1212,-0.1209,-0.1219,-0.1349,-0.1356,-0.1327,-0.1386,-0.14,-0.1408,-0.1396,-0.138,-0.1435,-0.1432,-0.1392,-0.1426,-0.1424,-0.1422,-0.1422,-0.1462,-0.1464,0,0,0,0,0,0,-0.1305,-0.1305,-0.1209,-0.1216,-0.1225,-0.1341,-0.1325,-0.1313,-0.1462,-0.1394,-0.1465,-0.1466,-0.1374,-0.1377,-0.1432,-0.1394,-0.1392,-0.1426,-0.1424,-0.1423,-0.1423,0,0,0,0,0,0,0,-0.1308,-0.126,-0.1133,-0.1223,-0.1231,-0.1285,-0.129,-0.1295,-0.1462,-0.1464,-0.1465,-0.1466,-0.1437,-0.1435,-0.1433,-0.1395,0,0,-0.1426,-0.1425,0,0,0,0,0,0,0,0,-0.1265,-0.1261,-0.1133,-0.1133,-0.1133,-0.1286,-0.129,-0.1294,-0.1463,-0.1464,-0.1464,-0.1465,-0.1437,-0.1435,-0.1433,0,0,0,0,0,0,0,0,0,0,0,0,0,0,0,-0.1133,-0.1133,0,-0.1286,-0.129,-0.1293,-0.1463,-0.1463,-0.1464,-0.1465,-0.1436,-0.1435,-0.1433,0,0,0,0,0,0,0,0,0,0,0,0,0,0,0,0,0,0,0,0,0,0,0,0,0,0,0,0,0,0,0,0,0,0,0,0,0,0,0,0,0,0,0,0,0,0,0,0,0,0,0,0,0,0,0,0,0,0,0,0,0,0,0,0,0,0,0,0,0]}],[{"header":{"parameterUnit":"kt","parameterCategory":2,"dx":1,"dy":1,"la1":30.253999710083008,"la2":30.299108505249023,"lo1":-89.0895004272461,"lo2":-89.04439544677734,"nx":28,"ny":28,"refTime":"2022-09-26T21:00:00:Z","depth":"2","parameterNumber":3,"parameterNumberName":"V-component_of_CURRENTS"},"data":[-0.1379,-0.1462,-0.1504,-0.1554,-0.1629,-0.1561,-0.1495,-0.1242,-0.099,-0.0578,-0.0296,0.0151,0.0382,0.0664,0.0873,0.0922,0.0676,0.092,0.0384,0.0404,0.0352,0.0374,0.0374,0,0,0,0,0,-0.1391,-0.1452,-0.1531,-0.1675,-0.1702,-0.1769,-0.1625,-0.1455,-0.1237,-0.0922,-0.0653,-0.0131,0.029,0.0382,0.0541,0.0615,0.0607,0.0594,0.0658,0.0609,0.0562,0.0587,0.1062,0.1061,0.106,0.106,0,0,-0.1414,-0.1466,-0.1711,-0.1759,-0.1807,-0.1785,-0.1705,-0.1561,-0.1408,-0.1077,-0.0999,-0.0643,-0.0324,0.0009,0.0075,0.0066,-0.004,0.0066,0.0048,0.0022,0.0025,0.0041,0.0347,0.0343,0.0339,0.0336,0.0333,0,-0.141,-0.1601,-0.1686,-0.1827,-0.1846,-0.1785,-0.1758,-0.1698,-0.159,-0.1413,-0.1208,-0.1053,-0.0776,-0.0436,-0.0357,-0.0315,-0.035,-0.0295,-0.0818,-0.0186,-0.0168,-0.0069,-0.0099,0.0094,0.0088,0.0084,0.0081,0.0079,-0.1466,-0.1543,-0.1704,-0.1726,-0.1752,-0.1788,-0.1828,-0.1783,-0.1673,-0.1496,-0.1398,-0.1259,-0.106,-0.0824,-0.0748,-0.064,-0.0901,-0.0431,-0.0427,-0.092,-0.0818,-0.0824,-0.083,0.0015,0.0023,0.003,0.0035,0,-0.1516,-0.1533,-0.1569,-0.1626,-0.1625,-0.1693,-0.1648,-0.163,-0.1641,-0.1499,-0.1514,-0.1357,-0.1191,-0.1094,-0.1015,-0.0964,-0.0902,-0.0973,-0.0668,-0.0534,-0.0844,-0.0846,-0.0783,-0.078,-0.0777,-0.0775,-0.0773,0,-0.1412,-0.1427,-0.1381,-0.1459,-0.1533,-0.1491,-0.1565,-0.1568,-0.1544,-0.1461,-0.1421,-0.1368,-0.1271,-0.1173,-0.1201,-0.1082,-0.1073,-0.1124,-0.1014,-0.0739,-0.0707,-0.1197,-0.1204,-0.1153,-0.1154,-0.1155,-0.1157,0,-0.1234,-0.1245,-0.1305,-0.1309,-0.1285,-0.1362,-0.1358,-0.137,-0.1355,-0.1329,-0.1279,-0.1287,-0.1251,-0.1269,-0.124,-0.1253,-0.1134,-0.1034,-0.1049,-0.1038,-0.0809,-0.0779,-0.1158,-0.1158,-0.1159,-0.1159,-0.116,0,-0.1064,-0.1134,-0.1212,-0.1142,-0.1213,-0.1174,-0.1258,-0.1219,-0.1196,-0.1206,-0.1244,-0.1224,-0.1252,-0.1339,-0.1253,-0.129,-0.1339,-0.1286,-0.1273,-0.1317,-0.1143,-0.0582,-0.0542,-0.1029,-0.1029,-0.103,-0.103,0,-0.0887,-0.0999,-0.1016,-0.1004,-0.1082,-0.111,-0.1115,-0.1093,-0.1053,-0.1061,-0.1082,-0.1089,-0.1179,-0.1277,-0.1302,-0.119,-0.1266,-0.1308,-0.1205,-0.1204,-0.1023,-0.1075,-0.0749,-0.0564,-0.1033,-0.1033,-0.1033,0,-0.0779,-0.0834,-0.0908,-0.0922,-0.1049,-0.0978,-0.1026,-0.1012,-0.1028,-0.1099,-0.1082,-0.1097,-0.1235,-0.123,-0.1269,-0.1305,-0.1249,-0.136,-0.1359,-0.1154,-0.1144,-0.1082,-0.1072,-0.1212,-0.1214,-0.1215,-0.1035,0,-0.0745,-0.0783,-0.0849,-0.0899,-0.0914,-0.0995,-0.0902,-0.1038,-0.1079,-0.1028,-0.1095,-0.1163,-0.1232,-0.1173,-0.12,-0.1238,-0.1243,-0.1202,-0.117,-0.1272,-0.1187,-0.1184,-0.1252,-0.1255,-0.1257,-0.1258,0,0,-0.0731,-0.0703,-0.072,-0.0824,-0.0839,-0.0826,-0.0871,-0.0903,-0.0965,-0.1034,-0.1081,-0.1158,-0.1118,-0.1082,-0.1226,-0.1181,-0.1193,-0.1224,-0.1279,-0.128,-0.1283,-0.1202,-0.1197,-0.1262,-0.1263,-0.1263,-0.1264,0,-0.068,-0.0713,-0.0737,-0.0738,-0.0809,-0.0791,-0.0772,-0.0849,-0.0993,-0.1001,-0.1103,-0.1173,-0.1115,-0.1173,-0.112,-0.1207,-0.1081,-0.121,-0.1357,-0.1293,-0.1291,-0.1291,-0.121,-0.1204,-0.1269,-0.1268,-0.1268,0,-0.0717,-0.0659,-0.056,-0.0486,-0.0572,-0.0571,-0.061,-0.074,-0.0706,-0.0807,-0.1019,-0.105,-0.1031,-0.1096,-0.1111,-0.1137,-0.1077,-0.1087,-0.1087,-0.1197,-0.1133,-0.1136,-0.1139,-0.1071,-0.1068,-0.1066,0,0,-0.0766,-0.0705,-0.0509,-0.042,-0.0485,-0.0503,-0.0575,-0.0671,-0.075,-0.0914,-0.0958,-0.1079,-0.102,-0.1056,-0.1083,-0.1081,-0.1082,-0.1044,-0.1053,-0.1059,-0.1169,-0.1112,-0.1118,-0.1057,-0.1057,-0.1056,0,0,-0.0717,-0.0477,-0.0446,-0.0386,-0.031,-0.0308,-0.0545,-0.0534,-0.0827,-0.1005,-0.0942,-0.0958,-0.0974,-0.1033,-0.0926,-0.1013,-0.1013,-0.1028,-0.0878,-0.089,-0.0901,-0.1019,-0.0829,0,0,0,0,0,-0.04,-0.0422,-0.0387,-0.0342,-0.0309,-0.0223,-0.0279,-0.0536,-0.0654,-0.0812,-0.0999,-0.0877,-0.1109,-0.1013,-0.0978,-0.0872,-0.0934,-0.0956,-0.0976,-0.0781,-0.0795,-0.0807,0,0,0,0,0,0,-0.0378,-0.0306,-0.0386,-0.0303,-0.0296,-0.0231,-0.0421,-0.0507,-0.0654,-0.0713,-0.0874,-0.0877,-0.0924,-0.1015,-0.0987,-0.0888,-0.0837,-0.0943,-0.0961,-0.0978,-0.0786,-0.0797,-0.0807,0,0,0,0,0,-0.036,-0.0302,-0.0128,-0.0328,-0.0322,-0.0562,-0.0436,-0.0508,-0.0775,-0.071,-0.075,-0.0944,-0.0919,-0.09,-0.0997,-0.0904,-0.0856,-0.0846,-0.0954,-0.0969,-0.0982,-0.0792,0,0,0,0,0,0,-0.0347,-0.0598,-0.0145,-0.0162,-0.036,-0.0597,-0.0624,-0.0507,-0.0777,-0.0805,-0.0756,-0.0791,-0.0914,-0.09,-0.0885,-0.0916,-0.087,-0.086,-0.0854,-0.0966,-0.0977,-0.0987,0,0,0,0,0,0,-0.0622,-0.061,-0.016,-0.0185,-0.0214,-0.0624,-0.0645,-0.0506,-0.0764,-0.083,-0.0859,-0.0763,-0.0718,-0.0899,-0.0888,-0.0689,-0.0882,-0.0872,-0.0866,-0.0861,-0.0975,-0.0984,0,0,0,0,0,0,-0.0628,-0.062,-0.0191,-0.0212,-0.024,-0.0541,-0.0509,-0.0403,-0.1004,-0.0813,-0.1022,-0.1031,-0.0693,-0.0704,-0.0889,-0.0694,-0.069,-0.0881,-0.0875,-0.087,-0.0867,0,0,0,0,0,0,0,-0.0633,-0.0552,0.0081,-0.0234,-0.026,-0.0301,-0.0318,-0.0334,-0.1005,-0.1013,-0.1021,-0.1028,-0.0936,-0.0925,-0.0915,-0.0699,0,0,-0.0882,-0.0878,0,0,0,0,0,0,0,0,-0.0569,-0.0556,0.0081,0.0084,0.0087,-0.0303,-0.0317,-0.0331,-0.1007,-0.1013,-0.1019,-0.1025,-0.0933,-0.0925,-0.0916,0,0,0,0,0,0,0,0,0,0,0,0,0,0,0,0.0081,0.0084,0,-0.0305,-0.0317,-0.0328,-0.1008,-0.1013,-0.1018,-0.1022,-0.0931,-0.0924,-0.0917,0,0,0,0,0,0,0,0,0,0,0,0,0,0,0,0,0,0,0,0,0,0,0,0,0,0,0,0,0,0,0,0,0,0,0,0,0,0,0,0,0,0,0,0,0,0,0,0,0,0,0,0,0,0,0,0,0,0,0,0,0,0,0,0,0,0,0,0,0]}]],[[{"header":{"parameterUnit":"kt","parameterCategory":2,"dx":1,"dy":1,"la1":30.253999710083008,"la2":30.299108505249023,"lo1":-89.0895004272461,"lo2":-89.04439544677734,"nx":28,"ny":28,"refTime":"2022-09-26T21:00:00:Z","depth":"4","parameterNumber":2,"parameterNumberName":"U-component_of_CURRENTS"},"data":[-0.0842,-0.0944,-0.0993,-0.0948,-0.0967,-0.098,-0.0993,-0.1042,-0.089,-0.1032,-0.0897,-0.1134,-0.0949,-0.1128,-0.0882,-0.0887,-0.1075,-0.0952,-0.0949,-0.134,-0.1369,-0.1395,-0.139,0,0,0,0,0,-0.0854,-0.0915,-0.1024,-0.1096,-0.1162,-0.1242,-0.1275,-0.1316,-0.1412,-0.1229,-0.1359,-0.1172,-0.1082,-0.1001,-0.0894,-0.104,-0.1166,-0.0917,-0.1246,-0.1358,-0.139,-0.1375,0,0,0,0,0,0,-0.089,-0.0943,-0.1072,-0.1214,-0.1332,-0.1301,-0.1398,-0.1354,-0.1414,-0.1573,-0.1423,-0.1433,-0.1492,-0.1321,-0.1238,-0.1213,-0.1166,-0.1219,-0.1256,-0.1288,-0.1248,-0.1153,-0.0816,0,0,0,0,0,-0.0932,-0.101,-0.1095,-0.1269,-0.1399,-0.1497,-0.1625,-0.1625,-0.1784,-0.2022,-0.1834,-0.1802,-0.1632,-0.1513,-0.151,-0.1409,-0.1774,-0.1634,-0.165,-0.1677,-0.1633,-0.1585,-0.1603,-0.1511,-0.1515,-0.1518,-0.152,0,-0.1008,-0.1033,-0.1232,-0.1318,-0.1425,-0.1615,-0.1708,-0.1942,-0.1967,-0.2145,-0.2114,-0.2112,-0.2112,-0.1803,-0.1843,-0.1737,-0.1707,-0.1718,-0.1747,-0.1686,-0.1627,-0.1638,-0.1647,-0.1545,-0.1543,-0.1541,-0.1539,0,-0.1049,-0.1131,-0.1217,-0.1387,-0.1469,-0.1573,-0.1835,-0.191,-0.2137,-0.2278,-0.2363,-0.2438,-0.2285,-0.2348,-0.2242,-0.2185,-0.2038,-0.1932,-0.221,-0.2155,-0.1694,-0.1693,-0.1588,-0.1578,-0.157,-0.1564,-0.1558,0,-0.1131,-0.1185,-0.1337,-0.1369,-0.149,-0.1602,-0.1766,-0.1891,-0.2105,-0.2188,-0.2398,-0.243,-0.256,-0.2519,-0.2438,-0.2214,-0.2351,-0.2038,-0.1965,-0.2251,-0.2247,-0.2204,-0.2194,-0.2296,-0.2297,-0.2298,-0.2299,0,-0.1178,-0.1282,-0.134,-0.1373,-0.1506,-0.1587,-0.1693,-0.1834,-0.1924,-0.2181,-0.2283,-0.2443,-0.2536,-0.2513,-0.2398,-0.2409,-0.2333,-0.2309,-0.2022,-0.2001,-0.2205,-0.2194,-0.23,-0.23,-0.23,-0.23,-0.2301,0,-0.1243,-0.1292,-0.1359,-0.1477,-0.1503,-0.1579,-0.171,-0.1782,-0.1953,-0.2045,-0.2233,-0.23,-0.2433,-0.2415,-0.2402,-0.2416,-0.2343,-0.2284,-0.2278,-0.2015,-0.1898,-0.2039,-0.2132,-0.2132,-0.2131,-0.2131,-0.2131,0,-0.1266,-0.1324,-0.1374,-0.145,-0.1487,-0.1552,-0.1621,-0.1695,-0.1777,-0.1918,-0.2029,-0.2153,-0.2147,-0.2248,-0.2291,-0.2232,-0.2253,-0.2262,-0.2142,-0.2137,-0.1914,-0.1946,-0.2246,-0.2126,-0.2127,-0.2127,-0.2128,0,-0.1268,-0.1357,-0.1365,-0.1404,-0.1473,-0.1507,-0.1575,-0.1645,-0.1717,-0.1805,-0.1944,-0.2009,-0.2091,-0.2123,-0.2173,-0.2205,-0.2231,-0.2157,-0.2154,-0.2107,-0.2214,-0.1967,-0.1945,-0.2235,-0.2237,-0.2239,-0.2125,0,-0.1299,-0.1342,-0.1363,-0.1413,-0.1456,-0.1486,-0.1538,-0.1584,-0.1633,-0.1675,-0.1792,-0.1837,-0.1936,-0.1952,-0.1945,-0.2059,-0.201,-0.1984,-0.1966,-0.2045,-0.1976,-0.1979,-0.1909,-0.1907,-0.1905,-0.1904,0,0,-0.1285,-0.1313,-0.1348,-0.1375,-0.1408,-0.1446,-0.1479,-0.1514,-0.1568,-0.1602,-0.1606,-0.1733,-0.173,-0.1851,-0.1884,-0.1864,-0.1844,-0.1926,-0.2,-0.2011,-0.2021,-0.1961,-0.1966,-0.19,-0.19,-0.1899,-0.1898,0,-0.1273,-0.1306,-0.1334,-0.136,-0.1406,-0.143,-0.1449,-0.1496,-0.1526,-0.1576,-0.1584,-0.1644,-0.1689,-0.1731,-0.1752,-0.1832,-0.1806,-0.1851,-0.1978,-0.1983,-0.1996,-0.2008,-0.1953,-0.1959,-0.1894,-0.1894,-0.1894,0,-0.1254,-0.1279,-0.13,-0.1342,-0.1372,-0.1406,-0.1414,-0.1455,-0.1489,-0.1483,-0.1551,-0.1565,-0.1579,-0.1643,-0.1671,-0.1667,-0.1772,-0.1756,-0.1765,-0.1786,-0.1787,-0.1803,-0.1817,-0.1638,-0.1637,-0.1637,0,0,-0.1244,-0.1275,-0.1309,-0.1341,-0.136,-0.1397,-0.1423,-0.144,-0.1467,-0.1483,-0.1513,-0.1541,-0.1564,-0.1602,-0.1602,-0.1673,-0.164,-0.1728,-0.174,-0.1751,-0.1777,-0.1781,-0.1796,-0.1635,-0.1635,-0.1635,0,0,-0.1238,-0.128,-0.1293,-0.1329,-0.136,-0.1392,-0.1424,-0.1444,-0.1475,-0.1483,-0.1494,-0.1499,-0.1547,-0.155,-0.1524,-0.1638,-0.1582,-0.1587,-0.1665,-0.1679,-0.1691,-0.1721,-0.1517,0,0,0,0,0,-0.1249,-0.1273,-0.1284,-0.1295,-0.1349,-0.1383,-0.1392,-0.1426,-0.1446,-0.1463,-0.1481,-0.1485,-0.1539,-0.1516,-0.1521,-0.16,-0.1612,-0.1616,-0.162,-0.1731,-0.1747,-0.176,0,0,0,0,0,0,-0.1253,-0.1264,-0.1284,-0.1314,-0.1328,-0.1382,-0.1388,-0.1397,-0.1444,-0.1448,-0.148,-0.1484,-0.1481,-0.1514,-0.1518,-0.1594,-0.1515,-0.1613,-0.1617,-0.162,-0.1736,-0.1749,-0.176,0,0,0,0,0,-0.1257,-0.1266,-0.1343,-0.1315,-0.1327,-0.1377,-0.1388,-0.1396,-0.1435,-0.1448,-0.1455,-0.1464,-0.148,-0.1486,-0.1516,-0.1593,-0.1512,-0.1514,-0.1616,-0.1618,-0.1621,-0.1743,0,0,0,0,0,0,-0.126,-0.1267,-0.1346,-0.1352,-0.1317,-0.1375,-0.1384,-0.1394,-0.1433,-0.144,-0.1429,-0.1431,-0.148,-0.1485,-0.1489,-0.1595,-0.151,-0.1511,-0.1512,-0.1618,-0.162,-0.1622,0,0,0,0,0,0,-0.1263,-0.1271,-0.1349,-0.1349,-0.1355,-0.1374,-0.1381,-0.1398,-0.1432,-0.141,-0.1414,-0.143,-0.1473,-0.1483,-0.1487,-0.1511,-0.1508,-0.1509,-0.1511,-0.1511,-0.1619,-0.1621,0,0,0,0,0,0,-0.1267,-0.1274,-0.1348,-0.1352,-0.1357,-0.1417,-0.1388,-0.1439,-0.1443,-0.1407,-0.1444,-0.1444,-0.1472,-0.1476,-0.1485,-0.1508,-0.151,-0.1508,-0.1509,-0.151,-0.151,0,0,0,0,0,0,0,-0.1271,-0.1215,-0.1319,-0.1354,-0.1358,-0.1404,-0.1405,-0.1406,-0.1443,-0.1443,-0.1444,-0.1444,-0.1499,-0.15,-0.1502,-0.1505,0,0,-0.1508,-0.1508,0,0,0,0,0,0,0,0,-0.1213,-0.1215,-0.132,-0.1321,-0.1322,-0.1404,-0.1405,-0.1406,-0.1443,-0.1443,-0.1444,-0.1444,-0.1499,-0.15,-0.1502,0,0,0,0,0,0,0,0,0,0,0,0,0,0,0,-0.132,-0.1321,0,-0.1404,-0.1405,-0.1405,-0.1443,-0.1443,-0.1444,-0.1444,-0.1499,-0.1501,-0.1502,0,0,0,0,0,0,0,0,0,0,0,0,0,0,0,0,0,0,0,0,0,0,0,0,0,0,0,0,0,0,0,0,0,0,0,0,0,0,0,0,0,0,0,0,0,0,0,0,0,0,0,0,0,0,0,0,0,0,0,0,0,0,0,0,0,0,0,0,0]}],[{"header":{"parameterUnit":"kt","parameterCategory":2,"dx":1,"dy":1,"la1":30.253999710083008,"la2":30.299108505249023,"lo1":-89.0895004272461,"lo2":-89.04439544677734,"nx":28,"ny":28,"refTime":"2022-09-26T21:00:00:Z","depth":"4","parameterNumber":3,"parameterNumberName":"V-component_of_CURRENTS"},"data":[-0.0147,-0.0226,-0.0249,-0.0411,-0.0494,-0.0653,-0.0712,-0.0722,-0.0696,-0.0644,-0.0545,-0.0434,-0.0249,-0.039,-0.0036,0.001,0.0524,0.0286,0.0292,0.1163,0.1199,0.1231,0.102,0,0,0,0,0,-0.0074,-0.0126,-0.0236,-0.034,-0.0454,-0.0515,-0.0625,-0.0639,-0.0629,-0.0639,-0.0571,-0.0514,-0.0283,-0.0251,-0.0043,-0.0068,0.056,0.0181,0.0924,0.1186,0.1225,0.1006,0,0,0,0,0,0,0.0011,-0.0057,-0.0106,-0.0195,-0.0323,-0.0451,-0.0485,-0.0542,-0.0573,-0.052,-0.059,-0.0465,-0.0352,-0.0115,0.0084,0.0331,0.0549,0.0843,0.0898,0.0939,0.0708,0.0371,0.0242,0,0,0,0,0,0.0107,0.0111,0.0031,-0.0072,-0.0164,-0.0298,-0.0383,-0.0412,-0.0427,-0.0397,-0.0427,-0.0291,-0.0219,0.0094,0.0309,0.0664,0.1205,0.1173,0.1205,0.1447,0.1246,0.1279,0.128,0.1374,0.1379,0.1383,0.1385,0,0.0249,0.0195,0.0105,0.0037,-0.0002,-0.0091,-0.0177,-0.0174,-0.0237,-0.026,-0.029,-0.018,-0.0081,0.0247,0.0578,0.1016,0.1101,0.1269,0.1524,0.1307,0.1333,0.1324,0.1313,0.1416,0.1414,0.1411,0.1409,0,0.0321,0.0294,0.0185,0.0103,0.0073,0.0,-0.0066,-0.0147,-0.0094,-0.0131,-0.0064,0.0056,0.0245,0.0548,0.1026,0.1212,0.1477,0.149,0.1544,0.1584,0.1383,0.1359,0.1468,0.1457,0.1447,0.1439,0.1432,0,0.0399,0.0325,0.0274,0.0221,0.0103,0.0097,0.0001,-0.0001,0.0009,-0.0042,0.016,0.0158,0.0663,0.083,0.1151,0.1339,0.156,0.1568,0.1603,0.1854,0.183,0.1917,0.1897,0.2075,0.2074,0.2073,0.2072,0,0.0486,0.0393,0.0309,0.0279,0.0198,0.0165,0.0141,0.0113,0.008,0.0179,0.0201,0.0428,0.0566,0.0936,0.118,0.1282,0.1571,0.1752,0.1602,0.1574,0.1904,0.1886,0.2071,0.2071,0.207,0.207,0.207,0,0.0548,0.0493,0.0394,0.0312,0.0294,0.0255,0.0193,0.0162,0.0187,0.0229,0.0338,0.0444,0.0633,0.077,0.1157,0.11,0.1329,0.1491,0.1503,0.1205,0.12,0.1514,0.1587,0.1583,0.1579,0.1576,0.1573,0,0.0622,0.0532,0.0539,0.0448,0.04,0.0425,0.0376,0.0366,0.0386,0.0395,0.0513,0.0554,0.0659,0.0722,0.0901,0.1096,0.1246,0.1107,0.1511,0.1518,0.1202,0.1201,0.1381,0.1522,0.1528,0.1533,0.1536,0,0.0694,0.0656,0.0652,0.061,0.0603,0.0581,0.055,0.0527,0.0492,0.057,0.0566,0.0618,0.0711,0.073,0.0801,0.0967,0.1158,0.1107,0.1119,0.1165,0.1554,0.1182,0.1176,0.1349,0.1356,0.1361,0.1501,0,0.0718,0.0707,0.0696,0.0674,0.0668,0.0642,0.0651,0.0653,0.0689,0.0699,0.0722,0.078,0.0821,0.0828,0.0859,0.0971,0.1008,0.1094,0.1156,0.118,0.1223,0.125,0.0944,0.0945,0.0946,0.0946,0,0,0.0786,0.0766,0.0816,0.0784,0.0768,0.0823,0.0779,0.0792,0.0806,0.0801,0.0851,0.0888,0.0907,0.0905,0.0906,0.0908,0.1028,0.095,0.1128,0.1147,0.1165,0.1211,0.1236,0.0948,0.0948,0.0949,0.0949,0,0.0792,0.0835,0.0823,0.0818,0.0826,0.0836,0.0838,0.0858,0.0877,0.0862,0.0903,0.0927,0.0939,0.0953,0.0962,0.0922,0.1049,0.0942,0.0926,0.1129,0.1146,0.1163,0.121,0.1232,0.0951,0.0951,0.0951,0,0.0823,0.0837,0.0846,0.0862,0.0877,0.0853,0.0914,0.0921,0.09,0.0964,0.0956,0.0988,0.101,0.1001,0.1004,0.1026,0.1093,0.1018,0.1014,0.102,0.1233,0.1251,0.1266,0.1076,0.1076,0.1076,0,0,0.0827,0.0839,0.0856,0.0864,0.087,0.0899,0.091,0.0932,0.095,0.0967,0.0993,0.1016,0.102,0.1034,0.1035,0.1028,0.1117,0.1032,0.1026,0.1021,0.1024,0.1233,0.1248,0.1077,0.1077,0.1077,0,0,0.0829,0.0854,0.0871,0.0886,0.0892,0.0915,0.0927,0.0954,0.0979,0.0992,0.103,0.1037,0.1033,0.1055,0.1062,0.1061,0.1088,0.1086,0.1046,0.1039,0.1033,0.1036,0.1109,0,0,0,0,0,0.0838,0.0843,0.0858,0.0863,0.0899,0.0898,0.0904,0.0951,0.0989,0.0995,0.102,0.1054,0.1067,0.1073,0.1076,0.1072,0.1088,0.1086,0.1084,0.103,0.1023,0.1016,0,0,0,0,0,0,0.0839,0.0845,0.0857,0.0878,0.0886,0.0899,0.0947,0.096,0.099,0.1,0.1046,0.1054,0.1075,0.1075,0.1076,0.1073,0.1109,0.1088,0.1086,0.1084,0.1028,0.1021,0.1016,0,0,0,0,0,0.0841,0.0845,0.0896,0.0878,0.0885,0.0938,0.095,0.0961,0.0997,0.102,0.1032,0.1034,0.1072,0.1077,0.1076,0.1071,0.1108,0.1109,0.1086,0.1085,0.1084,0.1025,0,0,0,0,0,0,0.0842,0.0859,0.0898,0.0901,0.0897,0.0939,0.095,0.0961,0.1017,0.1027,0.1007,0.1014,0.107,0.1074,0.1078,0.107,0.1108,0.1108,0.1108,0.1085,0.1084,0.1083,0,0,0,0,0,0,0.0857,0.0862,0.09,0.0921,0.0928,0.0941,0.095,0.0945,0.1017,0.1002,0.1009,0.1009,0.1063,0.1072,0.1075,0.1066,0.1107,0.1108,0.1108,0.1108,0.1085,0.1084,0,0,0,0,0,0,0.0859,0.0864,0.0921,0.0926,0.0932,0.0975,0.0938,0.0975,0.1032,0.0999,0.1038,0.1041,0.1059,0.1063,0.1073,0.1062,0.1065,0.1107,0.1108,0.1108,0.1108,0,0,0,0,0,0,0,0.0862,0.0824,0.0874,0.093,0.0935,0.093,0.0931,0.0933,0.1033,0.1035,0.1038,0.104,0.1105,0.1106,0.1106,0.1059,0,0,0.1107,0.1107,0,0,0,0,0,0,0,0,0.0823,0.0824,0.0874,0.0875,0.0875,0.093,0.0931,0.0933,0.1033,0.1035,0.1037,0.1039,0.1105,0.1106,0.1106,0,0,0,0,0,0,0,0,0,0,0,0,0,0,0,0.0874,0.0875,0,0.093,0.0931,0.0932,0.1034,0.1035,0.1037,0.1038,0.1105,0.1106,0.1106,0,0,0,0,0,0,0,0,0,0,0,0,0,0,0,0,0,0,0,0,0,0,0,0,0,0,0,0,0,0,0,0,0,0,0,0,0,0,0,0,0,0,0,0,0,0,0,0,0,0,0,0,0,0,0,0,0,0,0,0,0,0,0,0,0,0,0,0,0]}]]]